CZ-2D DEB, 44606

Orbit data source: Space-Track

CZ-2D DEB, 44606 is space debris in SSO originally from a launch on Fri, 11 Nov 2016 UTC launched from the Jiuquan Satellite Launch Center, China (JSC). Debris objects in space refer to the collection of defunct objects orbiting the Earth. Examples of debris include non-operational satellites, rocket bodies, and fragments generated from explosions, collisions, or faulty payload assembly.

Loading next visibility...
Identifier
44606, 2016-068F
Orbit
SSO
Last TLE update
4 hours ago
Origin
Manufacturer
Unknown
Mission
Spacecraft
Bus & Motor
Unknown
Mass
Unknown
Launch date (UTC)
2016-11-11 (9 years ago)
Launch vehicle
Unknown
Launch site
Jiuquan Satellite Launch Center, China (JSC)
Object type
Payload
Rocket body
Debris
Shape & HBR
Unknown
Radar Cross Section
Small (<0.1 m²)

Expand to show TLE details & history

TLE from 4 hours ago
0 CZ-2D DEB
1 44606U 16068F   25182.22760868  .00000486  00000-0  32922-3 0  9997
2 44606  98.4421 284.9000 0225976 100.9267 261.7408 13.92497459437587
Epoch: 2025-07-01T05:27Z
TLE epoch observation values (Epoch: 2025-07-01T05:27:45.389Z)
Latitude
-0.00002°
Longitude
-76.5652°
Altitude
950.107 km
Speed
7.363 km/s
True Right ascension
18h 59m 36s
True Declination
0° 00' 00"
Sunlit
Object was in full shadow at epoch
Visualization orbit readout
Latitude
-32.81889°
Longitude
98.13964°
Altitude
992.255 km
Speed
7.324 km/s
Apparent Right ascension
07h 54m 52s
Apparent Declination
-37° 57' 09"
Sunlit
Object is in daylight
Visualization observer readout
Local Sidereal Time
21:32:48
Azimuth
91.967° ESE
Elevation
-70.916°
Doppler factor
1
Orbital elements
Apogee altitude
1,081.927 km
Perigee altitude
752.218 km
Semi-major axis
7,295.21 km
Eccentricity
0.0226
Inclination
98.4421°
RAAN
284.9°
Arg. of periapsis
100.9267°
True anomaly
Unknown
Mean anomaly
261.7408°
Eccentric anomaly
Unknown
Mean motion
3.48326 °/min
Orbital period
103.35 mins
BSTAR
0.00032922
Loading maneuver chart data...
Loading SW <> Apogee altitude chart data...
Loading historical data...
Loading historical data...
Loading historical data...
Loading historical data...
Loading historical data...
Loading historical data...
Loading historical data...

CZ-2D DEB Visibility forecast

Observer location: undefined°, undefined°

Span
Click to sort rows by Start time (UTC) header in descending order
Start Az.
Max El. time (UTC)
Max El. Az.
Max El.
End time (UTC)
End Az.
10 mins2025-07-01 19:49:26.715Z11.369° NNE2025-07-01 19:54:26.715Z253.955° W44.72°2025-07-01 19:59:26.715Z197.64° SSW
6 mins2025-07-02 05:46:26.715Z102.908° ESE2025-07-02 05:48:26.715Z73.996° E22.224°2025-07-02 05:52:26.715Z17.955° NNE
8 mins2025-07-02 07:27:26.715Z201.248° SSW2025-07-02 07:30:26.715Z249.704° W32.844°2025-07-02 07:35:26.715Z329.828° NNW
|